Вернуться в каталог

STARLINK-37933

АктивенСвязьVLEO
NORAD 69532·PAYLOAD·🇺🇸 United States

Запущен Jun 12, 2026 с Cape Canaveral Space Force Station

Loading…

Ближайшие Пролёты (ближайшие 24 часа)

TLE

СвежийSource: CelesTrak SupGP

Эпоха: Sep 15, 2026, 03:37 UTC

1 69532C 26133AA  26258.15118056 -.00043764  00000+0 -12929-2 0  2588
2 69532  53.1576 255.0621 0001271  86.6966  65.5595 15.34415423    15

Отслеживайте STARLINK-37933 в реальном времени с AllMySat

Download on the App Store